Time,TemperatureF,DewpointF,PressureIn,WindDirection,WindDirectionDegrees,WindSpeedMPH,WindSpeedGustMPH,Humidity,HourlyPrecipIn,Conditions,Clouds,dailyrainin,SolarRadiationWatts/m^2,SoftwareType,DateUTC
2013-08-14 00:00:00,62.4,60.9,29.70,NW,317,0.0,21.0,95,0.00,,,0.00,0,Wunderground v.1.15,2013-08-14 06:00:00,
2013-08-14 00:05:00,62.3,60.8,29.70,NW,317,0.0,21.0,95,0.00,,,0.00,0,Wunderground v.1.15,2013-08-14 06:05:00,
2013-08-14 00:10:00,62.3,60.8,29.70,NW,317,0.0,21.0,95,0.00,,,0.00,0,Wunderground v.1.15,2013-08-14 06:10:00,
2013-08-14 00:15:00,62.3,60.8,29.69,NW,317,0.0,21.0,95,0.00,,,0.00,0,Wunderground v.1.15,2013-08-14 06:15:00,
2013-08-14 00:20:00,62.3,60.6,29.69,NW,317,0.0,21.0,94,0.00,,,0.00,0,Wunderground v.1.15,2013-08-14 06:20:00,
2013-08-14 00:25:00,62.2,60.5,29.69,NW,317,0.0,21.0,94,0.00,,,0.00,0,Wunderground v.1.15,2013-08-14 06:25:00,
2013-08-14 00:30:00,62.1,60.4,29.69,NW,317,0.0,21.0,94,0.00,,,0.00,0,Wunderground v.1.15,2013-08-14 06:30:00,
2013-08-14 00:35:00,62.0,60.3,29.69,NW,317,0.0,21.0,94,0.00,,,0.00,0,Wunderground v.1.15,2013-08-14 06:35:00,
2013-08-14 00:40:00,62.0,60.3,29.69,NW,317,0.0,21.0,94,0.00,,,0.00,0,Wunderground v.1.15,2013-08-14 06:40:00,
2013-08-14 00:45:00,62.0,60.3,29.69,NW,317,0.0,21.0,94,0.00,,,0.00,0,Wunderground v.1.15,2013-08-14 06:45:00,
2013-08-14 00:50:00,62.0,60.3,29.68,NW,317,0.0,21.0,94,0.00,,,0.00,0,Wunderground v.1.15,2013-08-14 06:50:00,
2013-08-14 00:55:00,61.9,60.2,29.68,NW,317,0.0,21.0,94,0.00,,,0.00,0,Wunderground v.1.15,2013-08-14 06:55:00,
2013-08-14 01:00:00,61.8,60.1,29.68,NW,317,0.0,21.0,94,0.00,,,0.00,0,Wunderground v.1.15,2013-08-14 07:00:00,
2013-08-14 01:05:00,61.6,59.6,29.68,NW,317,0.0,21.0,93,0.00,,,0.00,0,Wunderground v.1.15,2013-08-14 07:05:00,
2013-08-14 01:10:00,61.5,59.5,29.68,NW,317,0.0,21.0,93,0.00,,,0.00,0,Wunderground v.1.15,2013-08-14 07:10:00,
2013-08-14 01:15:00,61.4,59.4,29.68,NW,317,0.0,21.0,93,0.00,,,0.00,0,Wunderground v.1.15,2013-08-14 07:15:00,
2013-08-14 01:20:00,61.5,59.5,29.68,NW,317,0.0,21.0,93,0.00,,,0.00,0,Wunderground v.1.15,2013-08-14 07:20:00,
2013-08-14 01:25:00,61.4,59.4,29.68,NW,317,0.0,21.0,93,0.00,,,0.00,0,Wunderground v.1.15,2013-08-14 07:25:00,
2013-08-14 01:30:00,61.3,59.3,29.67,NW,317,0.0,21.0,93,0.00,,,0.00,0,Wunderground v.1.15,2013-08-14 07:30:00,
2013-08-14 01:35:00,61.2,59.2,29.67,NW,317,0.0,21.0,93,0.00,,,0.00,0,Wunderground v.1.15,2013-08-14 07:35:00,
2013-08-14 01:40:00,61.2,59.2,29.67,NW,317,0.0,21.0,93,0.00,,,0.00,0,Wunderground v.1.15,2013-08-14 07:40:00,
2013-08-14 01:45:00,61.1,59.1,29.67,NW,317,0.0,21.0,93,0.00,,,0.00,0,Wunderground v.1.15,2013-08-14 07:45:00,
2013-08-14 01:50:00,61.0,59.0,29.68,NW,317,0.0,21.0,93,0.00,,,0.00,0,Wunderground v.1.15,2013-08-14 07:50:00,
2013-08-14 02:00:00,60.8,59.1,29.67,NW,317,0.0,21.0,94,0.00,,,0.00,0,Wunderground v.1.15,2013-08-14 08:00:00,
2013-08-14 02:05:00,60.9,59.2,29.67,NW,317,0.0,21.0,94,0.00,,,0.00,0,Wunderground v.1.15,2013-08-14 08:05:00,
2013-08-14 02:10:00,60.9,59.2,29.67,NW,317,0.0,21.0,94,0.00,,,0.00,0,Wunderground v.1.15,2013-08-14 08:10:00,
2013-08-14 02:15:00,60.9,59.2,29.67,NW,317,0.0,21.0,94,0.00,,,0.00,0,Wunderground v.1.15,2013-08-14 08:15:00,
2013-08-14 02:20:00,60.7,59.0,29.67,NW,317,0.0,21.0,94,0.00,,,0.00,0,Wunderground v.1.15,2013-08-14 08:20:00,
2013-08-14 02:25:00,60.5,58.8,29.67,NW,317,0.0,21.0,94,0.00,,,0.00,0,Wunderground v.1.15,2013-08-14 08:25:00,
2013-08-14 02:30:00,60.5,58.8,29.67,NW,317,0.0,21.0,94,0.00,,,0.00,0,Wunderground v.1.15,2013-08-14 08:30:00,
2013-08-14 02:35:00,60.5,58.8,29.67,NW,317,0.0,21.0,94,0.00,,,0.00,0,Wunderground v.1.15,2013-08-14 08:35:00,
2013-08-14 02:40:00,60.3,58.3,29.67,NW,317,0.0,21.0,93,0.00,,,0.00,0,Wunderground v.1.15,2013-08-14 08:40:00,
2013-08-14 02:45:00,60.3,58.0,29.67,NW,317,1.0,21.0,92,0.00,,,0.00,0,Wunderground v.1.15,2013-08-14 08:45:00,
2013-08-14 02:50:00,60.3,58.0,29.67,NW,317,1.0,1.0,92,0.00,,,0.00,0,Wunderground v.1.15,2013-08-14 08:50:00,
2013-08-14 02:55:00,60.2,57.9,29.66,NW,317,0.0,21.0,92,0.00,,,0.00,0,Wunderground v.1.15,2013-08-14 08:55:00,
2013-08-14 03:00:00,60.1,57.8,29.66,NW,317,0.0,21.0,92,0.00,,,0.00,0,Wunderground v.1.15,2013-08-14 09:00:00,
2013-08-14 03:05:00,60.0,57.7,29.66,NW,317,0.0,21.0,92,0.00,,,0.00,0,Wunderground v.1.15,2013-08-14 09:05:00,
2013-08-14 03:10:00,59.9,57.6,29.66,NW,317,0.0,21.0,92,0.00,,,0.00,0,Wunderground v.1.15,2013-08-14 09:10:00,
2013-08-14 03:15:00,59.9,57.6,29.66,NW,317,0.0,21.0,92,0.00,,,0.00,0,Wunderground v.1.15,2013-08-14 09:15:00,
2013-08-14 03:20:00,59.9,57.6,29.66,NW,317,0.0,21.0,92,0.00,,,0.00,0,Wunderground v.1.15,2013-08-14 09:20:00,
2013-08-14 03:25:00,59.9,57.6,29.66,NW,317,0.0,21.0,92,0.00,,,0.01,0,Wunderground v.1.15,2013-08-14 09:25:00,
2013-08-14 03:30:00,60.0,57.7,29.66,NW,317,0.0,21.0,92,0.00,,,0.01,0,Wunderground v.1.15,2013-08-14 09:30:00,
2013-08-14 03:35:00,59.8,57.2,29.66,NW,317,0.0,21.0,91,0.00,,,0.01,0,Wunderground v.1.15,2013-08-14 09:35:00,
2013-08-14 03:40:00,59.6,57.0,29.66,NW,317,0.0,21.0,91,0.00,,,0.01,0,Wunderground v.1.15,2013-08-14 09:40:00,
2013-08-14 03:45:00,59.5,56.9,29.66,NW,317,1.0,21.0,91,0.00,,,0.01,0,Wunderground v.1.15,2013-08-14 09:45:00,
2013-08-14 03:50:00,59.6,57.0,29.66,NW,317,1.0,1.0,91,0.00,,,0.01,0,Wunderground v.1.15,2013-08-14 09:50:00,
2013-08-14 03:55:00,59.9,57.3,29.66,NW,317,0.0,21.0,91,0.00,,,0.01,0,Wunderground v.1.15,2013-08-14 09:55:00,
2013-08-14 04:00:00,60.2,57.3,29.66,NW,317,0.0,21.0,90,0.00,,,0.01,0,Wunderground v.1.15,2013-08-14 10:00:00,
2013-08-14 04:05:00,60.5,57.2,29.66,NW,317,0.0,21.0,89,0.00,,,0.01,0,Wunderground v.1.15,2013-08-14 10:05:00,
2013-08-14 04:10:00,60.6,57.0,29.66,NW,317,0.0,21.0,88,0.00,,,0.01,0,Wunderground v.1.15,2013-08-14 10:10:00,
2013-08-14 04:15:00,60.7,57.1,29.66,NW,317,0.0,21.0,88,0.00,,,0.01,0,Wunderground v.1.15,2013-08-14 10:15:00,
2013-08-14 04:20:00,60.7,56.8,29.66,NW,317,0.0,21.0,87,0.00,,,0.01,0,Wunderground v.1.15,2013-08-14 10:20:00,
2013-08-14 04:25:00,60.6,57.0,29.66,NW,317,0.0,21.0,88,0.00,,,0.01,0,Wunderground v.1.15,2013-08-14 10:25:00,
2013-08-14 04:30:00,60.5,56.6,29.66,NW,317,0.0,21.0,87,0.00,,,0.01,0,Wunderground v.1.15,2013-08-14 10:30:00,
2013-08-14 04:35:00,60.6,56.7,29.66,NW,317,0.0,21.0,87,0.00,,,0.01,0,Wunderground v.1.15,2013-08-14 10:35:00,
2013-08-14 04:40:00,60.4,56.5,29.66,NW,317,0.0,21.0,87,0.00,,,0.01,0,Wunderground v.1.15,2013-08-14 10:40:00,
2013-08-14 04:45:00,60.4,56.5,29.66,NW,317,0.0,21.0,87,0.00,,,0.01,0,Wunderground v.1.15,2013-08-14 10:45:00,
2013-08-14 04:50:00,60.2,56.3,29.66,NW,317,1.0,21.0,87,0.00,,,0.01,0,Wunderground v.1.15,2013-08-14 10:50:00,
2013-08-14 04:55:00,59.7,56.1,29.67,NW,317,1.0,21.0,88,0.00,,,0.01,0,Wunderground v.1.15,2013-08-14 10:55:00,
2013-08-14 05:00:00,59.5,56.3,29.67,NW,317,0.0,21.0,89,0.00,,,0.01,0,Wunderground v.1.15,2013-08-14 11:00:00,
2013-08-14 05:05:00,59.4,56.2,29.67,NW,317,0.0,21.0,89,0.00,,,0.01,0,Wunderground v.1.15,2013-08-14 11:05:00,
2013-08-14 05:10:00,59.2,56.0,29.67,NW,317,0.0,21.0,89,0.00,,,0.01,0,Wunderground v.1.15,2013-08-14 11:10:00,
2013-08-14 05:15:00,59.0,56.1,29.67,NW,317,0.0,21.0,90,0.00,,,0.01,0,Wunderground v.1.15,2013-08-14 11:15:00,
2013-08-14 05:20:00,59.2,56.3,29.67,NW,317,0.0,21.0,90,0.00,,,0.01,0,Wunderground v.1.15,2013-08-14 11:20:00,
2013-08-14 05:25:00,59.5,56.3,29.68,NW,317,1.0,21.0,89,0.00,,,0.01,0,Wunderground v.1.15,2013-08-14 11:25:00,
2013-08-14 05:30:00,59.7,56.5,29.68,NW,317,1.0,1.0,89,0.00,,,0.01,0,Wunderground v.1.15,2013-08-14 11:30:00,
2013-08-14 05:35:00,59.8,56.2,29.68,NW,317,0.0,21.0,88,0.00,,,0.01,7,Wunderground v.1.15,2013-08-14 11:35:00,
2013-08-14 05:40:00,59.7,56.1,29.68,NW,317,0.0,21.0,88,0.00,,,0.01,11,Wunderground v.1.15,2013-08-14 11:40:00,
2013-08-14 05:45:00,59.8,56.2,29.68,NW,317,0.0,21.0,88,0.00,,,0.01,12,Wunderground v.1.15,2013-08-14 11:45:00,
2013-08-14 05:50:00,59.8,56.2,29.68,NW,317,0.0,21.0,88,0.00,,,0.01,14,Wunderground v.1.15,2013-08-14 11:50:00,
2013-08-14 05:55:00,60.0,56.4,29.69,NW,317,0.0,21.0,88,0.00,,,0.01,16,Wunderground v.1.15,2013-08-14 11:55:00,
2013-08-14 06:00:00,60.1,56.5,29.69,NW,317,0.0,21.0,88,0.00,,,0.01,58,Wunderground v.1.15,2013-08-14 12:00:00,
2013-08-14 06:05:00,60.4,57.1,29.69,NW,317,0.0,21.0,89,0.00,,,0.01,84,Wunderground v.1.15,2013-08-14 12:05:00,
2013-08-14 06:10:00,61.0,57.4,29.69,NW,317,0.0,21.0,88,0.00,,,0.01,105,Wunderground v.1.15,2013-08-14 12:10:00,
2013-08-14 06:15:00,61.7,58.1,29.69,NW,317,0.0,21.0,88,0.00,,,0.01,125,Wunderground v.1.15,2013-08-14 12:15:00,
2013-08-14 06:20:00,62.1,58.2,29.69,NW,317,0.0,21.0,87,0.00,,,0.01,146,Wunderground v.1.15,2013-08-14 12:20:00,
2013-08-14 06:25:00,62.6,58.4,29.69,NW,317,0.0,21.0,86,0.00,,,0.01,167,Wunderground v.1.15,2013-08-14 12:25:00,
2013-08-14 06:30:00,62.5,57.9,29.69,NW,317,0.0,21.0,85,0.00,,,0.01,185,Wunderground v.1.15,2013-08-14 12:30:00,
2013-08-14 06:35:00,62.4,58.5,29.69,NW,317,0.0,21.0,87,0.00,,,0.01,207,Wunderground v.1.15,2013-08-14 12:35:00,
2013-08-14 06:40:00,62.5,58.9,29.69,NW,317,0.0,21.0,88,0.00,,,0.01,229,Wunderground v.1.15,2013-08-14 12:40:00,
2013-08-14 06:45:00,62.8,58.2,29.70,NW,317,0.0,21.0,85,0.00,,,0.01,248,Wunderground v.1.15,2013-08-14 12:45:00,
2013-08-14 06:50:00,63.2,58.9,29.70,NW,317,0.0,21.0,86,0.00,,,0.01,269,Wunderground v.1.15,2013-08-14 12:50:00,
2013-08-14 06:55:00,63.7,59.4,29.70,NW,317,0.0,21.0,86,0.00,,,0.01,294,Wunderground v.1.15,2013-08-14 12:55:00,
2013-08-14 07:00:00,64.2,58.9,29.71,NW,317,0.0,21.0,83,0.00,,,0.01,315,Wunderground v.1.15,2013-08-14 13:00:00,
2013-08-14 07:05:00,64.8,59.5,29.71,NW,317,0.0,21.0,83,0.00,,,0.01,334,Wunderground v.1.15,2013-08-14 13:05:00,
2013-08-14 07:15:00,66.0,60.0,29.71,NW,317,0.0,21.0,81,0.00,,,0.01,369,Wunderground v.1.15,2013-08-14 13:15:00,
2013-08-14 07:20:00,66.7,61.0,29.71,NW,317,0.0,21.0,82,0.00,,,0.01,388,Wunderground v.1.15,2013-08-14 13:20:00,
2013-08-14 07:25:00,67.1,60.7,29.71,NW,317,0.0,21.0,80,0.00,,,0.01,410,Wunderground v.1.15,2013-08-14 13:25:00,
2013-08-14 07:30:00,67.2,60.8,29.71,NW,317,0.0,21.0,80,0.00,,,0.01,429,Wunderground v.1.15,2013-08-14 13:30:00,
2013-08-14 07:35:00,67.4,60.7,29.70,NW,317,0.0,21.0,79,0.00,,,0.01,448,Wunderground v.1.15,2013-08-14 13:35:00,
2013-08-14 07:40:00,67.4,60.3,29.71,NW,317,0.0,21.0,78,0.00,,,0.01,468,Wunderground v.1.15,2013-08-14 13:40:00,
2013-08-14 07:45:00,67.5,60.0,29.71,NW,317,0.0,21.0,77,0.00,,,0.01,489,Wunderground v.1.15,2013-08-14 13:45:00,
2013-08-14 07:50:00,67.9,60.4,29.71,NW,317,0.0,21.0,77,0.00,,,0.01,504,Wunderground v.1.15,2013-08-14 13:50:00,
2013-08-14 07:55:00,68.2,60.3,29.71,NW,317,0.0,21.0,76,0.00,,,0.01,524,Wunderground v.1.15,2013-08-14 13:55:00,
2013-08-14 08:00:00,68.4,60.9,29.71,NW,317,0.0,21.0,77,0.00,,,0.01,543,Wunderground v.1.15,2013-08-14 14:00:00,
2013-08-14 08:05:00,68.6,61.1,29.71,NW,317,0.0,21.0,77,0.00,,,0.01,564,Wunderground v.1.15,2013-08-14 14:05:00,
2013-08-14 08:10:00,68.9,60.3,29.71,NW,317,1.0,1.0,74,0.00,,,0.01,582,Wunderground v.1.15,2013-08-14 14:10:00,
2013-08-14 08:15:00,69.1,61.6,29.70,NW,317,1.0,21.0,77,0.00,,,0.01,601,Wunderground v.1.15,2013-08-14 14:15:00,
2013-08-14 08:20:00,69.4,61.5,29.71,NNE,28,1.0,21.0,76,0.00,,,0.01,621,Wunderground v.1.15,2013-08-14 14:20:00,
2013-08-14 08:25:00,69.7,61.0,29.71,NNE,28,2.0,21.0,74,0.00,,,0.01,638,Wunderground v.1.15,2013-08-14 14:25:00,
2013-08-14 08:30:00,70.0,61.3,29.71,NNE,28,1.0,1.0,74,0.00,,,0.01,652,Wunderground v.1.15,2013-08-14 14:30:00,
2013-08-14 08:35:00,70.1,61.4,29.71,NNE,28,1.0,21.0,74,0.00,,,0.01,673,Wunderground v.1.15,2013-08-14 14:35:00,
2013-08-14 08:40:00,70.3,61.6,29.71,NNE,28,2.0,2.0,74,0.00,,,0.01,691,Wunderground v.1.15,2013-08-14 14:40:00,
2013-08-14 08:45:00,70.5,62.6,29.70,NNE,24,2.0,7.0,76,0.00,,,0.01,751,Wunderground v.1.15,2013-08-14 14:45:00,
2013-08-14 08:50:00,70.2,61.9,29.70,NNE,22,2.0,21.0,75,0.00,,,0.01,745,Wunderground v.1.15,2013-08-14 14:50:00,
2013-08-14 08:55:00,70.4,62.1,29.70,NNE,28,2.0,21.0,75,0.00,,,0.01,863,Wunderground v.1.15,2013-08-14 14:55:00,
2013-08-14 09:00:00,70.6,61.9,29.70,NNE,28,2.0,21.0,74,0.00,,,0.01,789,Wunderground v.1.15,2013-08-14 15:00:00,
2013-08-14 09:05:00,70.6,61.9,29.70,NNE,22,2.0,21.0,74,0.00,,,0.01,782,Wunderground v.1.15,2013-08-14 15:05:00,
2013-08-14 09:10:00,70.6,62.3,29.69,NNE,22,3.0,3.0,75,0.00,,,0.01,810,Wunderground v.1.15,2013-08-14 15:10:00,
2013-08-14 09:15:00,70.8,62.5,29.69,NNE,22,2.0,21.0,75,0.00,,,0.01,844,Wunderground v.1.15,2013-08-14 15:15:00,
2013-08-14 09:20:00,71.1,62.0,29.69,NNE,13,2.0,2.0,73,0.00,,,0.01,854,Wunderground v.1.15,2013-08-14 15:20:00,
2013-08-14 09:25:00,71.2,62.5,29.69,North,5,4.0,4.0,74,0.00,,,0.01,849,Wunderground v.1.15,2013-08-14 15:25:00,
2013-08-14 09:30:00,71.2,63.2,29.69,NNE,25,3.0,21.0,76,0.00,,,0.01,865,Wunderground v.1.15,2013-08-14 15:30:00,
2013-08-14 09:35:00,71.6,62.9,29.69,NNE,22,3.0,21.0,74,0.00,,,0.01,863,Wunderground v.1.15,2013-08-14 15:35:00,
2013-08-14 09:40:00,72.1,63.0,29.69,NNE,19,2.0,21.0,73,0.00,,,0.01,868,Wunderground v.1.15,2013-08-14 15:40:00,
2013-08-14 09:45:00,71.8,61.9,29.69,North,11,3.0,21.0,71,0.00,,,0.01,877,Wunderground v.1.15,2013-08-14 15:45:00,
2013-08-14 09:50:00,71.7,62.2,29.69,NNE,20,4.0,21.0,72,0.00,,,0.01,900,Wunderground v.1.15,2013-08-14 15:50:00,
2013-08-14 09:55:00,71.9,62.4,29.69,NNE,24,3.0,21.0,72,0.00,,,0.01,916,Wunderground v.1.15,2013-08-14 15:55:00,